Retour au catalogue

CZ-2C R/B

ActifPO
NORAD 43610·ROCKET BODY·🇨🇳 China

Lancé Sep 7, 2018 depuis Taiyuan Satellite Launch Center

Loading…

Prochains Passages (prochaines 24 heures)

TLE

FraisSource: Space-Track

Époque: Sep 14, 2026, 08:09 UTC

1 43610U 18068B   26257.33975779  .00000161  00000-0  45775-4 0  9999
2 43610  98.7093 106.6909 0087609  77.1926 283.9042 14.56657516425875

Suivez CZ-2C R/B en temps réel avec AllMySat

Download on the App Store